Location: Central Coast NSW, Australia
(33.2407°S, 151.4316°E)
Time: 21:14:51
(UTC+11:00)

ISS - Pass Details

Date: 01 February 2019
Orbit: 403 x 411 km, 51.6° (Epoch: 18 February)

Event Time Altitude Azimuth Distance (km) Brightness Sun altitude
Exits shadow 04:53:17 13° 236° (WSW) 1,304 -1.5 -16.2°
Maximum altitude 04:54:28 16° 212° (SSW) 1,204 -1.4 -16.0°
Drops below altitude 10° 04:56:35 10° 173° (S) 1,496 -0.4 -15.6°
Sets 04:59:19 0° 149° (SSE) 2,362 1.3 -15.1°
